Content
SEND FEEDBACK

Daily
Averages
Monthly
Summary
United States of America

ALDERSON, WEST VIRGINIA


Home > North America > United States > West Virginia
Elevation: 155 feet     Latitude: 37 43N     Longitude: 080 38W

WEATHER
 
SELECT A DAY
Number of Records: 365,819;   Date Range: 1/1/95 - 7/26/14
 
SHARE

PRINT THIS DATA

[ ← Previous Day ]
WEATHER ALMANAC - JANUARY 31, 2013
[ Next Day → ]
[ °C ]   °F
Weather ElementAverageHighLow
Temperature27.5 °F41 °F (12:35 am)23 °F (2:55 pm)
Dewpoint17.9 °F35.6 °F (12:35 am)12.2 °F (10:35 am)
Humidity68 %93 % (1:55 am)51 % (11:55 am)
Barometer29.73 in29.87 in (6:15 pm)29.40 in (12:35 am)
Wind Speed13 mph23 mph (1:15 am)
Wind Gust33.4 mph (2:35 pm)
Weather ElementAverage
Visibility8.6 mi
Wind DirectionW (270.4 °)

Weather ElementTotal
Precipitation0.09 in
Heating Degree Days33 (Base 65)
Averaged from 70 records on January 31, 2013
WEATHER CONDITIONS BREAKOUT
WIND DIRECTION BREAKOUT
WEATHER BY HOUR - JANUARY 31, 2013
[ °C ]   °F
Local TimeTemperatureDewpointHumidityBarometerVisibilityWind DirectionWind SpeedGust SpeedPrecipitationEventsConditions
12:35 AM41.0 °F35.6 °F81 %29.40 in10.0 miWSW (240°)15.0 mph21.9 mph0.01 inMostly Cloudy
12:55 AM41.0 °F35.6 °F81 %29.40 in10.0 miWSW (240°)13.8 mph21.9 mph0.01 inOvercast
1:15 AM41.0 °F35.6 °F81 %29.40 in10.0 miWSW (240°)23.0 mph27.6 mph0.01 inRainRain
1:35 AM37.4 °F33.8 °F87 %29.43 in10.0 miWest (260°)19.6 mph32.2 mph0.03 inOvercast
1:55 AM33.8 °F32.0 °F93 %29.45 in10.0 miWNW (300°)12.7 mph20.7 mph0.03 inOvercast
2:15 AM33.8 °F30.2 °F87 %29.47 in10.0 miWNW (290°)13.8 mph21.9 mphRainLight Rain
2:35 AM32.0 °F30.2 °F93 %29.47 in10.0 miWNW (290°)11.5 mph26.5 mphRainLight Rain
2:55 AM32.0 °F28.4 °F87 %29.49 in10.0 miWest (280°)16.1 mph25.3 mphOvercast
3:15 AM32.0 °F28.4 °F87 %29.50 in5.0 miWest (280°)11.5 mph23.0 mphSnowLight Snow
3:35 AM32.0 °F28.4 °F87 %29.52 in2.5 miWNW (290°)13.8 mph23.0 mphSnowLight Snow
3:55 AM32.0 °F23.0 °F69 %29.53 in10.0 miWest (280°)19.6 mph32.2 mphOvercast
4:15 AM32.0 °F21.2 °F64 %29.54 in10.0 miWest (280°)17.3 mph29.9 mphOvercast
4:35 AM30.2 °F23.0 °F75 %29.56 in10.0 miWest (280°)13.8 mph25.3 mphSnowLight Snow
4:55 AM30.2 °F21.2 °F69 %29.57 in10.0 miWNW (290°)8.1 mph21.9 mphSnowLight Snow
5:15 AM28.4 °F21.2 °F74 %29.59 in7.0 miWest (280°)13.8 mph21.9 mphSnowLight Snow
5:35 AM28.4 °F23.0 °F80 %29.60 in1.5 miWest (280°)11.5 mph21.9 mphSnowLight Snow
5:55 AM26.6 °F23.0 °F86 %29.62 in1.2 miWSW (250°)11.5 mph27.6 mphSnowLight Snow
6:15 AM26.6 °F21.2 °F80 %29.63 in2.5 miWest (280°)11.5 mph25.3 mphSnowLight Snow
6:35 AM26.6 °F17.6 °F69 %29.64 in10.0 miWest (280°)13.8 mph25.3 mphMostly Cloudy
7:15 AM26.6 °F17.6 °F69 %29.66 in10.0 miWNW (300°)15.0 mph23.0 mphOvercast
7:35 AM26.6 °F17.6 °F69 %29.68 in5.0 miWest (270°)16.1 mph29.9 mphSnowLight Snow
7:55 AM26.6 °F15.8 °F64 %29.67 in10.0 miWNW (290°)12.7 mph21.9 mphOvercast
8:15 AM26.6 °F15.8 °F64 %29.67 in10.0 miWest (280°)6.9 mph20.7 mphOvercast
8:35 AM26.6 °F17.6 °F69 %29.69 in10.0 miWNW (290°)11.5 mph21.9 mphOvercast
8:55 AM26.6 °F17.6 °F69 %29.71 in5.0 miWest (280°)13.8 mph24.2 mphSnowLight Snow
9:15 AM26.6 °F17.6 °F69 %29.72 in7.0 miWest (270°)15.0 mph24.2 mphSnowLight Snow
9:35 AM26.6 °F17.6 °F69 %29.73 in10.0 miWest (260°)16.1 mph23.0 mphOvercast
9:55 AM26.6 °F17.6 °F69 %29.75 in2.5 miWest (270°)17.3 mph24.2 mphSnowLight Snow
10:15 AM26.6 °F15.8 °F64 %29.75 in10.0 miWest (270°)19.6 mph28.8 mphOvercast
10:35 AM26.6 °F12.2 °F55 %29.77 in10.0 miWest (270°)16.1 mph26.5 mphOvercast
10:55 AM26.6 °F12.2 °F55 %29.78 in10.0 miWest (270°)17.3 mph29.9 mphOvercast
11:15 AM26.6 °F14.0 °F59 %29.78 in10.0 miWNW (300°)11.5 mph17.3 mphOvercast
11:35 AM26.6 °F14.0 °F59 %29.78 in10.0 miWNW (300°)15.0 mph24.2 mphOvercast
11:55 AM28.4 °F12.2 °F51 %29.78 in10.0 miWest (270°)16.1 mph25.3 mphOvercast
12:15 PM26.6 °F14.0 °F59 %29.79 in10.0 miWest (280°)18.4 mph25.3 mphSnowLight Snow
12:35 PM26.6 °F14.0 °F59 %29.78 in10.0 miWSW (250°)17.3 mph24.2 mphOvercast
12:55 PM26.6 °F14.0 °F59 %29.79 in10.0 miWest (280°)17.3 mph28.8 mphOvercast
1:15 PM24.8 °F12.2 °F59 %29.78 in7.0 miWNW (290°)13.8 mph26.5 mphOvercast
1:35 PM26.6 °F12.2 °F55 %29.79 in10.0 miWNW (290°)10.4 mph23.0 mphOvercast
1:55 PM26.6 °F12.2 °F55 %29.79 in10.0 miWest (270°)11.5 mph26.5 mphOvercast
2:15 PM26.6 °F14.0 °F59 %29.80 in7.0 miWest (280°)11.5 mph18.4 mphSnowLight Snow
2:35 PM24.8 °F14.0 °F64 %29.82 in4.0 miWest (270°)18.4 mph33.4 mphSnowLight Snow
2:55 PM23.0 °F15.8 °F74 %29.82 in5.0 miWest (270°)15.0 mph23.0 mphSnowLight Snow
3:15 PM24.8 °F15.8 °F69 %29.83 in5.0 miWest (270°)19.6 mph25.3 mphSnowLight Snow
3:35 PM24.8 °F14.0 °F64 %29.83 in10.0 miWest (270°)16.1 mph24.2 mphOvercast
3:55 PM24.8 °F14.0 °F64 %29.83 in10.0 miWest (270°)10.4 mph25.3 mphMostly Cloudy
4:15 PM26.6 °F15.8 °F64 %29.84 in10.0 miWSW (240°)13.8 mph20.7 mphMostly Cloudy
4:35 PM26.6 °F14.0 °F59 %29.83 in10.0 miWest (280°)13.8 mph19.6 mphOvercast
4:55 PM26.6 °F12.2 °F55 %29.84 in10.0 miWest (260°)16.1 mph25.3 mphOvercast
5:15 PM26.6 °F12.2 °F55 %29.85 in10.0 miWest (270°)12.7 mph25.3 mphMostly Cloudy
5:35 PM24.8 °F12.2 °F59 %29.86 in10.0 miWest (260°)11.5 mph23.0 mphOvercast
5:55 PM23.0 °F12.2 °F63 %29.86 in10.0 miWest (280°)11.5 mph18.4 mphMostly Cloudy
6:15 PM23.0 °F12.2 °F63 %29.87 in10.0 miWest (270°)11.5 mph17.3 mphScattered Clouds
6:35 PM23.0 °F12.2 °F63 %29.87 in10.0 miWest (270°)10.4 mphMostly Cloudy
6:55 PM23.0 °F12.2 °F63 %29.87 in10.0 miWNW (290°)9.2 mph16.1 mphOvercast
7:15 PM23.0 °F12.2 °F63 %29.87 in10.0 miWest (280°)9.2 mphScattered Clouds
7:35 PM23.0 °F12.2 °F63 %29.87 in10.0 miWest (270°)5.8 mphMostly Cloudy
7:55 PM23.0 °F12.2 °F63 %29.87 in10.0 miWest (270°)6.9 mphOvercast
8:15 PM24.8 °F12.2 °F59 %29.87 in10.0 miWSW (250°)6.9 mphOvercast
8:35 PM24.8 °F12.2 °F59 %29.87 in10.0 miWest (260°)11.5 mph17.3 mphOvercast
8:55 PM24.8 °F14.0 °F64 %29.86 in10.0 miWSW (240°)10.4 mphOvercast
9:15 PM24.8 °F14.0 °F64 %29.87 in10.0 miWSW (240°)8.1 mphSnowLight Snow
9:35 PM24.8 °F14.0 °F64 %29.87 in10.0 miWSW (250°)9.2 mphOvercast
9:55 PM24.8 °F15.8 °F69 %29.86 in10.0 miWest (260°)9.2 mph16.1 mphOvercast
10:15 PM26.6 °F15.8 °F64 %29.86 in10.0 miWSW (250°)8.1 mph17.3 mphOvercast
10:35 PM26.6 °F17.6 °F69 %29.85 in7.0 miWSW (250°)11.5 mph18.4 mphSnowLight Snow
10:55 PM26.6 °F17.6 °F69 %29.83 in10.0 miWSW (240°)9.2 mph16.1 mphOvercast
11:15 PM26.6 °F17.6 °F69 %29.82 in10.0 miWSW (240°)6.9 mphOvercast
11:35 PM26.6 °F19.4 °F74 %29.82 in5.0 miWest (260°)8.1 mphSnowLight Snow
11:55 PM24.8 °F19.4 °F80 %29.82 in2.5 miWest (260°)5.8 mphSnowLight Snow
Hourly data recorded from KLWB, located miles away from Alderson, West Virginia







STORIES FROM OUR PARTNERS